Torna al catalogo

OSCAR 5

AttivoRadioamatoreSSO
NORAD 4321·PAYLOAD·🇦🇺 Australia

Lanciato Jan 23, 1970 da Vandenberg Space Force Base

Loading…

Prossimi Passaggi (prossime 24 ore)

TLE

AggiornatoSource: Space-Track

Epoca: Sep 14, 2026, 11:59 UTC

1 04321U 70008B   26257.49970381 -.00000047  00000-0 -28755-4 0  9992
2 04321 101.3261 261.8938 0028068  87.6000  65.2727 12.52192931588621

Traccia OSCAR 5 in tempo reale con AllMySat

Download on the App Store